Weather History for Sioux City, IA

Change the Weather History Date:

Sunday, July 27, 2014

  Actual Average Record
Temperature  
Mean Temperature 70 °F 74 °F  
Max Temperature 80 °F 85 °F 104 °F (1935)
Min Temperature 59 °F 63 °F 47 °F (2013)
Degree Days  
Heating Degree Days 0 0  
Month to date heating degree days 6 0  
Since 1 June heating degree days 26 27  
Since 1 July heating degree days 6 0  
Cooling Degree Days 5 9  
Month to date cooling degree days 186 260  
Year to date cooling degree days 502 512  
Since 1 June cooling degree days 381 448  
Growing Degree Days 20 (Base 50)    
Moisture  
Dew Point 58 °F    
Average Humidity 70    
Maximum Humidity 93    
Minimum Humidity 47    
Precipitation  
Precipitation 0.00 in 0.11 in 1.67 in (1892)
Month to date precipitation 3.60 3.02  
Year to date precipitation 25.50 16.89  
Snow  
Snow 0.00 in 0.00 in 0.00 in ()
Month to date snowfall 0.0 0.0  
Since 1 June snowfall 0.0 0.0  
Since 1 July snowfall 0.0 0.0  
Snow Depth 0.00 in    
Sea Level Pressure  
Sea Level Pressure 30.06 in    
Wind  
Wind Speed 12 mph (NW)    
Max Wind Speed 26 mph    
Max Gust Speed 37 mph    
Visibility 10 miles    
Events Rain    
T = Trace of Precipitation, MM = Missing Value Source: NWS Daily Summary

Daily Weather History Graph

Daily Weather History Graph

Search for Another Location

Airport:

Trip Planner

Search our weather history database for the weather conditions in past years. The results will help you decide how hot, cold, wet, or windy it might be!

Date:

Astronomy

Jul. 27, 2014 Rise Set
Actual Time 6:12 AM CDT 8:50 PM CDT
Civil Twilight 5:40 AM CDT 9:22 PM CDT
Nautical Twilight 5:00 AM CDT 10:03 PM CDT
Astronomical Twilight 4:13 AM CDT 10:48 PM CDT
Moon 7:03 AM CDT (7/27) 8:57 PM CDT (7/27)
Length of Visible Light 15h 42m
Length of Day
14h 37m
New Moon, 1% of the Moon is Illuminated
Jul 27
New Moon
Aug 3
First Quarter
Aug 10
Full
Aug 17
Last Quarter
Aug 25
New

Hourly Weather History & Observations

Time (CDT) Temp. Dew Point Humidity Pressure Visibility Wind Dir Wind Speed Gust Speed Precip Events Conditions
12:52 AM 70.0 °F 66.9 °F 90% 29.93 in 10.0 mi WNW 4.6 mph - N/A   Clear
1:52 AM 68.0 °F 66.0 °F 93% 29.95 in 10.0 mi NNW 5.8 mph - N/A   Clear
2:52 AM 66.9 °F 64.0 °F 90% 29.96 in 10.0 mi WNW 5.8 mph - N/A   Clear
3:52 AM 64.9 °F 60.1 °F 84% 29.97 in 10.0 mi NNW 5.8 mph - N/A   Clear
4:52 AM 60.1 °F 57.9 °F 93% 29.97 in 10.0 mi West 3.5 mph - N/A   Clear
5:52 AM 62.1 °F 57.0 °F 84% 29.99 in 10.0 mi West 8.1 mph - N/A   Clear
6:52 AM 62.1 °F 55.9 °F 80% 30.00 in 10.0 mi WNW 6.9 mph - N/A   Clear
7:52 AM 64.9 °F 57.0 °F 75% 30.01 in 10.0 mi WNW 6.9 mph - N/A   Clear
8:52 AM 69.1 °F 57.9 °F 68% 30.03 in 10.0 mi NW 11.5 mph - N/A   Clear
9:52 AM 73.0 °F 59.0 °F 61% 30.04 in 10.0 mi NW 15.0 mph - 0.00 in Rain Light Rain
10:52 AM 75.0 °F 59.0 °F 57% 30.06 in 10.0 mi NW 13.8 mph 20.7 mph 0.00 in   Partly Cloudy
11:52 AM 75.2 °F 57.2 °F 53% 30.09 in 10.0 mi NW 19.6 mph 27.6 mph N/A   Clear
12:52 PM 77.0 °F 57.9 °F 52% 30.08 in 10.0 mi NNW 18.4 mph 27.6 mph N/A   Partly Cloudy
1:52 PM 78.1 °F 57.0 °F 48% 30.08 in 10.0 mi NNW 20.7 mph 36.8 mph N/A   Scattered Clouds
2:52 PM 78.1 °F 57.9 °F 50% 30.08 in 10.0 mi NNW 19.6 mph 27.6 mph N/A   Mostly Cloudy
3:52 PM 78.8 °F 57.2 °F 47% 30.11 in 10.0 mi NNW 20.7 mph 27.6 mph N/A   Scattered Clouds
4:52 PM 77.0 °F 55.9 °F 48% 30.10 in 10.0 mi North 16.1 mph - N/A   Scattered Clouds
5:52 PM 79.0 °F 57.9 °F 48% 30.10 in 10.0 mi North 17.3 mph - N/A   Scattered Clouds
6:52 PM 77.0 °F 57.0 °F 50% 30.10 in 10.0 mi NNW 17.3 mph 23.0 mph N/A   Mostly Cloudy
7:52 PM 73.9 °F 57.0 °F 55% 30.11 in 10.0 mi North 15.0 mph - N/A   Partly Cloudy
8:52 PM 70.0 °F 55.9 °F 61% 30.13 in 10.0 mi North 13.8 mph 21.9 mph N/A   Clear
9:52 PM 66.0 °F 55.9 °F 70% 30.17 in 10.0 mi North 9.2 mph - N/A   Clear
10:52 PM 64.9 °F 55.0 °F 70% 30.18 in 10.0 mi NNW 9.2 mph - N/A   Clear
11:52 PM 60.1 °F 55.9 °F 86% 30.19 in 10.0 mi WNW 4.6 mph - N/A   Clear